Weather History for Sarasota, FL

Change the Weather History Date:

Tuesday, November 27, 2012

  Actual Average Record
Temperature  
Mean Temperature 68 °F 67 °F  
Max Temperature 80 °F 77 °F 86 °F (1960)
Min Temperature 55 °F 57 °F 38 °F (1962)
Degree Days  
Heating Degree Days 0 2  
Month to date heating degree days 41 22  
Since 1 July heating degree days 41 25  
Cooling Degree Days 3 4  
Month to date cooling degree days 68 145  
Year to date cooling degree days 3716 3289  
Growing Degree Days 18 (Base 50)    
Moisture  
Dew Point 62 °F    
Average Humidity 84    
Maximum Humidity 100    
Minimum Humidity 54    
Precipitation  
Precipitation 0.00 in 0.06 in 1.83 in (1918)
Month to date precipitation 0.35 1.70  
Year to date precipitation 44.04 50.25  
Sea Level Pressure  
Sea Level Pressure 30.13 in    
Wind  
Wind Speed 6 mph (South)    
Max Wind Speed 16 mph    
Max Gust Speed 20 mph    
Visibility 9 miles    
Events      
T = Trace of Precipitation, MM = Missing Value Source: NWS Daily Summary

Daily Weather History Graph

Daily Weather History Graph

Search for Another Location

Airport:

Trip Planner

Search our weather history database for the weather conditions in past years. The results will help you decide how hot, cold, wet, or windy it might be!

Date:

Astronomy

Nov. 27, 2012 Rise Set
Actual Time 7:00 AM EST 5:35 PM EST
Civil Twilight 6:35 AM EST 6:00 PM EST
Nautical Twilight 6:06 AM EST 6:29 PM EST
Astronomical Twilight 5:38 AM EST 6:57 PM EST
Moon 5:04 PM EST (11/27) 6:06 AM EST (11/27)
Length of Visible Light 11h 25m
Length of Day
10h 35m
Waxing Gibbous, 99% of the Moon is Illuminated
Nov 27
Waxing Gibbous
Nov 28
Full
Dec 6
Last Quarter
Dec 13
New
Dec 20
First Quarter

Hourly Weather History & Observations

Time (EST) Temp. Dew Point Humidity Pressure Visibility Wind Dir Wind Speed Gust Speed Precip Events Conditions
12:53 AM 57.0 °F 55.0 °F 93% 30.16 in 8.0 mi Calm Calm - N/A   Clear
1:53 AM 57.9 °F 55.9 °F 93% 30.15 in 8.0 mi ESE 3.5 mph - N/A   Scattered Clouds
2:53 AM 59.0 °F 57.0 °F 93% 30.15 in 9.0 mi Calm Calm - N/A   Clear
3:53 AM 57.9 °F 55.9 °F 93% 30.14 in 8.0 mi Calm Calm - N/A   Clear
4:53 AM 59.0 °F 55.9 °F 90% 30.13 in 8.0 mi East 3.5 mph - N/A   Clear
5:53 AM 57.0 °F 55.9 °F 96% 30.13 in 7.0 mi ESE 4.6 mph - N/A   Clear
6:53 AM 57.0 °F 55.9 °F 96% 30.14 in 7.0 mi East 4.6 mph - N/A   Partly Cloudy
7:53 AM 63.0 °F 61.0 °F 93% 30.15 in 8.0 mi ESE 5.8 mph - N/A   Clear
8:53 AM 66.9 °F 61.0 °F 81% 30.17 in 10.0 mi SE 8.1 mph - N/A   Clear
9:53 AM 72.0 °F 62.1 °F 71% 30.17 in 10.0 mi SE 10.4 mph - N/A   Clear
10:53 AM 75.9 °F 63.0 °F 64% 30.17 in 10.0 mi SSE 12.7 mph - N/A   Partly Cloudy
11:53 AM 79.0 °F 61.0 °F 54% 30.15 in 10.0 mi SSW 10.4 mph - N/A   Mostly Cloudy
12:53 PM 78.1 °F 63.0 °F 60% 30.12 in 10.0 mi SSW 11.5 mph - N/A   Clear
1:53 PM 77.0 °F 64.0 °F 64% 30.11 in 10.0 mi South 11.5 mph - N/A   Clear
2:53 PM 75.9 °F 64.0 °F 67% 30.10 in 10.0 mi SSW 12.7 mph - N/A   Clear
3:53 PM 73.9 °F 64.0 °F 71% 30.10 in 10.0 mi SSW 11.5 mph - N/A   Clear
4:53 PM 72.0 °F 64.9 °F 78% 30.11 in 10.0 mi SSW 5.8 mph - N/A   Mostly Cloudy
5:53 PM 70.0 °F 64.9 °F 84% 30.11 in 10.0 mi SSW 6.9 mph - N/A   Scattered Clouds
6:53 PM 69.1 °F 64.9 °F 87% 30.12 in 10.0 mi South 4.6 mph - N/A   Clear
7:53 PM 69.1 °F 66.0 °F 90% 30.13 in 10.0 mi Calm Calm - N/A   Mostly Cloudy
8:22 PM 68.0 °F 64.4 °F 88% 30.13 in 10.0 mi Calm Calm - N/A   Mostly Cloudy
8:53 PM 66.0 °F 64.9 °F 96% 30.13 in 9.0 mi Calm Calm - N/A   Mostly Cloudy
9:53 PM 64.0 °F 62.1 °F 93% 30.12 in 10.0 mi South 3.5 mph - N/A   Scattered Clouds
10:53 PM 66.9 °F 66.0 °F 97% 30.13 in 8.0 mi SW 3.5 mph - N/A   Clear
11:53 PM 66.0 °F 66.0 °F 100% 30.13 in 7.0 mi SW 4.6 mph - N/A   Clear